Index of /20260501/WXO-DD/model_gdps/15km/00/012
Name Last modified Size Description
Parent Directory -
20260501T00Z_MSC_GDPS_AbsoluteVorticity_IsbL-0200_LatLon0.15_PT012H.grib2 2026-05-01 03:56 1.5M
20260501T00Z_MSC_GDPS_AbsoluteVorticity_IsbL-0250_LatLon0.15_PT012H.grib2 2026-05-01 03:56 1.3M
20260501T00Z_MSC_GDPS_AbsoluteVorticity_IsbL-0500_LatLon0.15_PT012H.grib2 2026-05-01 03:56 1.5M
20260501T00Z_MSC_GDPS_AbsoluteVorticity_IsbL-0700_LatLon0.15_PT012H.grib2 2026-05-01 03:56 1.7M
20260501T00Z_MSC_GDPS_AbsoluteVorticity_IsbL-0850_LatLon0.15_PT012H.grib2 2026-05-01 03:56 1.6M
20260501T00Z_MSC_GDPS_AirTemp-Max_AGL-2m_LatLon0.15_PT012H.grib2 2026-05-01 03:56 737K
20260501T00Z_MSC_GDPS_AirTemp-Min_AGL-2m_LatLon0.15_PT012H.grib2 2026-05-01 03:56 790K
20260501T00Z_MSC_GDPS_AirTemp_AGL-120m_LatLon0.15_PT012H.grib2 2026-05-01 03:56 791K
20260501T00Z_MSC_GDPS_AirTemp_AGL-2m_LatLon0.15_PT012H.grib2 2026-05-01 03:56 1.0M
20260501T00Z_MSC_GDPS_AirTemp_AGL-40m_LatLon0.15_PT012H.grib2 2026-05-01 03:56 811K
20260501T00Z_MSC_GDPS_AirTemp_AGL-80m_LatLon0.15_PT012H.grib2 2026-05-01 03:56 799K
20260501T00Z_MSC_GDPS_AirTemp_IsbL-0001_LatLon0.15_PT012H.grib2 2026-05-01 03:56 655K
20260501T00Z_MSC_GDPS_AirTemp_IsbL-0005_LatLon0.15_PT012H.grib2 2026-05-01 03:56 687K
20260501T00Z_MSC_GDPS_AirTemp_IsbL-0010_LatLon0.15_PT012H.grib2 2026-05-01 03:56 763K
20260501T00Z_MSC_GDPS_AirTemp_IsbL-0020_LatLon0.15_PT012H.grib2 2026-05-01 03:56 787K
20260501T00Z_MSC_GDPS_AirTemp_IsbL-0030_LatLon0.15_PT012H.grib2 2026-05-01 03:56 752K
20260501T00Z_MSC_GDPS_AirTemp_IsbL-0050_LatLon0.15_PT012H.grib2 2026-05-01 03:56 808K
20260501T00Z_MSC_GDPS_AirTemp_IsbL-0100_LatLon0.15_PT012H.grib2 2026-05-01 03:56 949K
20260501T00Z_MSC_GDPS_AirTemp_IsbL-0150_LatLon0.15_PT012H.grib2 2026-05-01 03:56 972K
20260501T00Z_MSC_GDPS_AirTemp_IsbL-0175_LatLon0.15_PT012H.grib2 2026-05-01 03:56 959K
20260501T00Z_MSC_GDPS_AirTemp_IsbL-0200_LatLon0.15_PT012H.grib2 2026-05-01 03:56 971K
20260501T00Z_MSC_GDPS_AirTemp_IsbL-0225_LatLon0.15_PT012H.grib2 2026-05-01 03:56 1.0M
20260501T00Z_MSC_GDPS_AirTemp_IsbL-0250_LatLon0.15_PT012H.grib2 2026-05-01 03:56 1.0M
20260501T00Z_MSC_GDPS_AirTemp_IsbL-0275_LatLon0.15_PT012H.grib2 2026-05-01 03:56 1.0M
20260501T00Z_MSC_GDPS_AirTemp_IsbL-0300_LatLon0.15_PT012H.grib2 2026-05-01 03:56 948K
20260501T00Z_MSC_GDPS_AirTemp_IsbL-0350_LatLon0.15_PT012H.grib2 2026-05-01 03:56 931K
20260501T00Z_MSC_GDPS_AirTemp_IsbL-0400_LatLon0.15_PT012H.grib2 2026-05-01 03:56 941K
20260501T00Z_MSC_GDPS_AirTemp_IsbL-0450_LatLon0.15_PT012H.grib2 2026-05-01 03:56 960K
20260501T00Z_MSC_GDPS_AirTemp_IsbL-0500_LatLon0.15_PT012H.grib2 2026-05-01 03:56 1.0M
20260501T00Z_MSC_GDPS_AirTemp_IsbL-0550_LatLon0.15_PT012H.grib2 2026-05-01 03:56 799K
20260501T00Z_MSC_GDPS_AirTemp_IsbL-0600_LatLon0.15_PT012H.grib2 2026-05-01 03:56 899K
20260501T00Z_MSC_GDPS_AirTemp_IsbL-0650_LatLon0.15_PT012H.grib2 2026-05-01 03:56 927K
20260501T00Z_MSC_GDPS_AirTemp_IsbL-0700_LatLon0.15_PT012H.grib2 2026-05-01 03:56 963K
20260501T00Z_MSC_GDPS_AirTemp_IsbL-0750_LatLon0.15_PT012H.grib2 2026-05-01 03:56 1.0M
20260501T00Z_MSC_GDPS_AirTemp_IsbL-0800_LatLon0.15_PT012H.grib2 2026-05-01 03:56 1.1M
20260501T00Z_MSC_GDPS_AirTemp_IsbL-0850_LatLon0.15_PT012H.grib2 2026-05-01 03:56 1.1M
20260501T00Z_MSC_GDPS_AirTemp_IsbL-0875_LatLon0.15_PT012H.grib2 2026-05-01 03:56 1.1M
20260501T00Z_MSC_GDPS_AirTemp_IsbL-0900_LatLon0.15_PT012H.grib2 2026-05-01 03:56 1.1M
20260501T00Z_MSC_GDPS_AirTemp_IsbL-0925_LatLon0.15_PT012H.grib2 2026-05-01 03:56 1.1M
20260501T00Z_MSC_GDPS_AirTemp_IsbL-0950_LatLon0.15_PT012H.grib2 2026-05-01 03:56 1.1M
20260501T00Z_MSC_GDPS_AirTemp_IsbL-0970_LatLon0.15_PT012H.grib2 2026-05-01 03:56 1.2M
20260501T00Z_MSC_GDPS_AirTemp_IsbL-0985_LatLon0.15_PT012H.grib2 2026-05-01 03:56 1.1M
20260501T00Z_MSC_GDPS_AirTemp_IsbL-1000_LatLon0.15_PT012H.grib2 2026-05-01 03:56 1.1M
20260501T00Z_MSC_GDPS_AirTemp_IsbL-1015_LatLon0.15_PT012H.grib2 2026-05-01 03:56 1.1M
20260501T00Z_MSC_GDPS_Albedo_Sfc_LatLon0.15_PT012H.grib2 2026-05-01 03:56 239K
20260501T00Z_MSC_GDPS_CAPE_Sfc_LatLon0.15_PT012H.grib2 2026-05-01 03:56 3.8M
20260501T00Z_MSC_GDPS_CIN_Sfc_LatLon0.15_PT012H.grib2 2026-05-01 03:56 3.0M
20260501T00Z_MSC_GDPS_CloudWater_EAtm_LatLon0.15_PT012H.grib2 2026-05-01 03:56 533K
20260501T00Z_MSC_GDPS_ConvectivePrecip-Accum_Sfc_LatLon0.15_PT012H.grib2 2026-05-01 03:56 1.9M
20260501T00Z_MSC_GDPS_DewPointDepression_AGL-2m_LatLon0.15_PT012H.grib2 2026-05-01 03:56 764K
20260501T00Z_MSC_GDPS_DewPointDepression_IsbL-0010_LatLon0.15_PT012H.grib2 2026-05-01 03:56 85K
20260501T00Z_MSC_GDPS_DewPointDepression_IsbL-0020_LatLon0.15_PT012H.grib2 2026-05-01 03:56 65K
20260501T00Z_MSC_GDPS_DewPointDepression_IsbL-0030_LatLon0.15_PT012H.grib2 2026-05-01 03:56 70K
20260501T00Z_MSC_GDPS_DewPointDepression_IsbL-0050_LatLon0.15_PT012H.grib2 2026-05-01 03:56 368K
20260501T00Z_MSC_GDPS_DewPointDepression_IsbL-0100_LatLon0.15_PT012H.grib2 2026-05-01 03:56 413K
20260501T00Z_MSC_GDPS_DewPointDepression_IsbL-0150_LatLon0.15_PT012H.grib2 2026-05-01 03:56 470K
20260501T00Z_MSC_GDPS_DewPointDepression_IsbL-0175_LatLon0.15_PT012H.grib2 2026-05-01 03:56 566K
20260501T00Z_MSC_GDPS_DewPointDepression_IsbL-0200_LatLon0.15_PT012H.grib2 2026-05-01 03:56 693K
20260501T00Z_MSC_GDPS_DewPointDepression_IsbL-0225_LatLon0.15_PT012H.grib2 2026-05-01 03:56 800K
20260501T00Z_MSC_GDPS_DewPointDepression_IsbL-0250_LatLon0.15_PT012H.grib2 2026-05-01 03:56 886K
20260501T00Z_MSC_GDPS_DewPointDepression_IsbL-0275_LatLon0.15_PT012H.grib2 2026-05-01 03:56 897K
20260501T00Z_MSC_GDPS_DewPointDepression_IsbL-0300_LatLon0.15_PT012H.grib2 2026-05-01 03:56 935K
20260501T00Z_MSC_GDPS_DewPointDepression_IsbL-0350_LatLon0.15_PT012H.grib2 2026-05-01 03:56 955K
20260501T00Z_MSC_GDPS_DewPointDepression_IsbL-0400_LatLon0.15_PT012H.grib2 2026-05-01 03:56 1.0M
20260501T00Z_MSC_GDPS_DewPointDepression_IsbL-0450_LatLon0.15_PT012H.grib2 2026-05-01 03:56 1.0M
20260501T00Z_MSC_GDPS_DewPointDepression_IsbL-0500_LatLon0.15_PT012H.grib2 2026-05-01 03:56 1.0M
20260501T00Z_MSC_GDPS_DewPointDepression_IsbL-0550_LatLon0.15_PT012H.grib2 2026-05-01 03:56 1.0M
20260501T00Z_MSC_GDPS_DewPointDepression_IsbL-0600_LatLon0.15_PT012H.grib2 2026-05-01 03:56 1.0M
20260501T00Z_MSC_GDPS_DewPointDepression_IsbL-0650_LatLon0.15_PT012H.grib2 2026-05-01 03:56 1.1M
20260501T00Z_MSC_GDPS_DewPointDepression_IsbL-0700_LatLon0.15_PT012H.grib2 2026-05-01 03:56 1.1M
20260501T00Z_MSC_GDPS_DewPointDepression_IsbL-0750_LatLon0.15_PT012H.grib2 2026-05-01 03:56 1.1M
20260501T00Z_MSC_GDPS_DewPointDepression_IsbL-0800_LatLon0.15_PT012H.grib2 2026-05-01 03:56 1.2M
20260501T00Z_MSC_GDPS_DewPointDepression_IsbL-0850_LatLon0.15_PT012H.grib2 2026-05-01 03:56 1.2M
20260501T00Z_MSC_GDPS_DewPointDepression_IsbL-0875_LatLon0.15_PT012H.grib2 2026-05-01 03:56 1.1M
20260501T00Z_MSC_GDPS_DewPointDepression_IsbL-0900_LatLon0.15_PT012H.grib2 2026-05-01 03:56 1.1M
20260501T00Z_MSC_GDPS_DewPointDepression_IsbL-0925_LatLon0.15_PT012H.grib2 2026-05-01 03:56 1.0M
20260501T00Z_MSC_GDPS_DewPointDepression_IsbL-0950_LatLon0.15_PT012H.grib2 2026-05-01 03:56 1.0M
20260501T00Z_MSC_GDPS_DewPointDepression_IsbL-0970_LatLon0.15_PT012H.grib2 2026-05-01 03:56 1.0M
20260501T00Z_MSC_GDPS_DewPointDepression_IsbL-0985_LatLon0.15_PT012H.grib2 2026-05-01 03:56 1.0M
20260501T00Z_MSC_GDPS_DewPointDepression_IsbL-1000_LatLon0.15_PT012H.grib2 2026-05-01 03:56 1.0M
20260501T00Z_MSC_GDPS_DewPointDepression_IsbL-1015_LatLon0.15_PT012H.grib2 2026-05-01 03:56 915K
20260501T00Z_MSC_GDPS_DewPoint_AGL-2m_LatLon0.15_PT012H.grib2 2026-05-01 03:56 610K
20260501T00Z_MSC_GDPS_DownwardLongwaveRadiationFlux-Accum_Sfc_LatLon0.15_PT012H.grib2 2026-05-01 03:56 1.0M
20260501T00Z_MSC_GDPS_DownwardShortwaveRadiationFlux-Accum_NTAtm_LatLon0.15_PT012H.grib2 2026-05-01 03:56 343K
20260501T00Z_MSC_GDPS_DownwardShortwaveRadiationFlux-Accum_Sfc_LatLon0.15_PT012H.grib2 2026-05-01 03:56 886K
20260501T00Z_MSC_GDPS_FreezingRain-Accum12h_Sfc_LatLon0.15_PT012H.grib2 2026-05-01 03:56 108K
20260501T00Z_MSC_GDPS_FreezingRain-Accum1h_Sfc_LatLon0.15_PT012H.grib2 2026-05-01 03:56 39K
20260501T00Z_MSC_GDPS_FreezingRain-Accum3h_Sfc_LatLon0.15_PT012H.grib2 2026-05-01 03:56 47K
20260501T00Z_MSC_GDPS_FreezingRain-Accum6h_Sfc_LatLon0.15_PT012H.grib2 2026-05-01 03:56 67K
20260501T00Z_MSC_GDPS_FreezingRain-Accum_Sfc_LatLon0.15_PT012H.grib2 2026-05-01 03:56 122K
20260501T00Z_MSC_GDPS_GeopotentialHeight_IsbL-0001_LatLon0.15_PT012H.grib2 2026-05-01 03:56 433K
20260501T00Z_MSC_GDPS_GeopotentialHeight_IsbL-0005_LatLon0.15_PT012H.grib2 2026-05-01 03:56 485K
20260501T00Z_MSC_GDPS_GeopotentialHeight_IsbL-0010_LatLon0.15_PT012H.grib2 2026-05-01 03:56 478K
20260501T00Z_MSC_GDPS_GeopotentialHeight_IsbL-0020_LatLon0.15_PT012H.grib2 2026-05-01 03:56 415K
20260501T00Z_MSC_GDPS_GeopotentialHeight_IsbL-0030_LatLon0.15_PT012H.grib2 2026-05-01 03:56 574K
20260501T00Z_MSC_GDPS_GeopotentialHeight_IsbL-0050_LatLon0.15_PT012H.grib2 2026-05-01 03:56 578K
20260501T00Z_MSC_GDPS_GeopotentialHeight_IsbL-0100_LatLon0.15_PT012H.grib2 2026-05-01 03:56 611K
20260501T00Z_MSC_GDPS_GeopotentialHeight_IsbL-0150_LatLon0.15_PT012H.grib2 2026-05-01 03:56 628K
20260501T00Z_MSC_GDPS_GeopotentialHeight_IsbL-0175_LatLon0.15_PT012H.grib2 2026-05-01 03:56 633K
20260501T00Z_MSC_GDPS_GeopotentialHeight_IsbL-0200_LatLon0.15_PT012H.grib2 2026-05-01 03:56 636K
20260501T00Z_MSC_GDPS_GeopotentialHeight_IsbL-0225_LatLon0.15_PT012H.grib2 2026-05-01 03:56 642K
20260501T00Z_MSC_GDPS_GeopotentialHeight_IsbL-0250_LatLon0.15_PT012H.grib2 2026-05-01 03:56 642K
20260501T00Z_MSC_GDPS_GeopotentialHeight_IsbL-0275_LatLon0.15_PT012H.grib2 2026-05-01 03:56 643K
20260501T00Z_MSC_GDPS_GeopotentialHeight_IsbL-0300_LatLon0.15_PT012H.grib2 2026-05-01 03:56 636K
20260501T00Z_MSC_GDPS_GeopotentialHeight_IsbL-0350_LatLon0.15_PT012H.grib2 2026-05-01 03:56 633K
20260501T00Z_MSC_GDPS_GeopotentialHeight_IsbL-0400_LatLon0.15_PT012H.grib2 2026-05-01 03:56 625K
20260501T00Z_MSC_GDPS_GeopotentialHeight_IsbL-0450_LatLon0.15_PT012H.grib2 2026-05-01 03:56 616K
20260501T00Z_MSC_GDPS_GeopotentialHeight_IsbL-0500_LatLon0.15_PT012H.grib2 2026-05-01 03:56 535K
20260501T00Z_MSC_GDPS_GeopotentialHeight_IsbL-0550_LatLon0.15_PT012H.grib2 2026-05-01 03:56 531K
20260501T00Z_MSC_GDPS_GeopotentialHeight_IsbL-0600_LatLon0.15_PT012H.grib2 2026-05-01 03:56 526K
20260501T00Z_MSC_GDPS_GeopotentialHeight_IsbL-0650_LatLon0.15_PT012H.grib2 2026-05-01 03:56 525K
20260501T00Z_MSC_GDPS_GeopotentialHeight_IsbL-0700_LatLon0.15_PT012H.grib2 2026-05-01 03:56 696K
20260501T00Z_MSC_GDPS_GeopotentialHeight_IsbL-0750_LatLon0.15_PT012H.grib2 2026-05-01 03:56 696K
20260501T00Z_MSC_GDPS_GeopotentialHeight_IsbL-0800_LatLon0.15_PT012H.grib2 2026-05-01 03:56 704K
20260501T00Z_MSC_GDPS_GeopotentialHeight_IsbL-0850_LatLon0.15_PT012H.grib2 2026-05-01 03:56 718K
20260501T00Z_MSC_GDPS_GeopotentialHeight_IsbL-0875_LatLon0.15_PT012H.grib2 2026-05-01 03:56 717K
20260501T00Z_MSC_GDPS_GeopotentialHeight_IsbL-0900_LatLon0.15_PT012H.grib2 2026-05-01 03:56 727K
20260501T00Z_MSC_GDPS_GeopotentialHeight_IsbL-0925_LatLon0.15_PT012H.grib2 2026-05-01 03:56 735K
20260501T00Z_MSC_GDPS_GeopotentialHeight_IsbL-0950_LatLon0.15_PT012H.grib2 2026-05-01 03:56 742K
20260501T00Z_MSC_GDPS_GeopotentialHeight_IsbL-0970_LatLon0.15_PT012H.grib2 2026-05-01 03:56 752K
20260501T00Z_MSC_GDPS_GeopotentialHeight_IsbL-0985_LatLon0.15_PT012H.grib2 2026-05-01 03:56 768K
20260501T00Z_MSC_GDPS_GeopotentialHeight_IsbL-1000_LatLon0.15_PT012H.grib2 2026-05-01 03:56 785K
20260501T00Z_MSC_GDPS_GeopotentialHeight_IsbL-1015_LatLon0.15_PT012H.grib2 2026-05-01 03:56 620K
20260501T00Z_MSC_GDPS_Humidex_Sfc_LatLon0.15_PT012H.grib2 2026-05-01 03:56 5.3M
20260501T00Z_MSC_GDPS_IcePellets-Accum12h_Sfc_LatLon0.15_PT012H.grib2 2026-05-01 03:56 30K
20260501T00Z_MSC_GDPS_IcePellets-Accum1h_Sfc_LatLon0.15_PT012H.grib2 2026-05-01 03:56 16K
20260501T00Z_MSC_GDPS_IcePellets-Accum3h_Sfc_LatLon0.15_PT012H.grib2 2026-05-01 03:56 22K
20260501T00Z_MSC_GDPS_IcePellets-Accum6h_Sfc_LatLon0.15_PT012H.grib2 2026-05-01 03:56 24K
20260501T00Z_MSC_GDPS_IcePellets-Accum_Sfc_LatLon0.15_PT012H.grib2 2026-05-01 03:56 31K
20260501T00Z_MSC_GDPS_KIndex_Sfc_LatLon0.15_PT012H.grib2 2026-05-01 03:56 6.4M
20260501T00Z_MSC_GDPS_LatentHeatNetFlux_Sfc_LatLon0.15_PT012H.grib2 2026-05-01 03:56 721K
20260501T00Z_MSC_GDPS_LiftedIndex-MU-VT_IsbL-0500_LatLon0.15_PT012H.grib2 2026-05-01 03:56 5.4M
20260501T00Z_MSC_GDPS_NetLongwaveRadiationFlux-Accum_Sfc_LatLon0.15_PT012H.grib2 2026-05-01 03:56 1.3M
20260501T00Z_MSC_GDPS_NetShortwaveRadiationFlux-Accum_Sfc_LatLon0.15_PT012H.grib2 2026-05-01 03:56 848K
20260501T00Z_MSC_GDPS_O3MixingRatio_Sfc_LatLon0.15_PT012H.grib2 2026-05-01 04:49 2.4M
20260501T00Z_MSC_GDPS_O3_EAtm_LatLon0.15_PT012H.grib2 2026-05-01 04:49 2.5M
20260501T00Z_MSC_GDPS_PlanetaryBoundaryLayerHeight_Sfc_LatLon0.15_PT012H.grib2 2026-05-01 03:56 2.5M
20260501T00Z_MSC_GDPS_Precip-Accum12h_Sfc_LatLon0.15_PT012H.grib2 2026-05-01 03:56 4.3M
20260501T00Z_MSC_GDPS_Precip-Accum1h_Sfc_LatLon0.15_PT012H.grib2 2026-05-01 03:56 3.2M
20260501T00Z_MSC_GDPS_Precip-Accum3h_Sfc_LatLon0.15_PT012H.grib2 2026-05-01 03:56 3.5M
20260501T00Z_MSC_GDPS_Precip-Accum6h_Sfc_LatLon0.15_PT012H.grib2 2026-05-01 03:56 3.9M
20260501T00Z_MSC_GDPS_Precip-Accum_Sfc_LatLon0.15_PT012H.grib2 2026-05-01 03:56 4.1M
20260501T00Z_MSC_GDPS_PrecipRate_Sfc_LatLon0.15_PT012H.grib2 2026-05-01 03:56 3.0M
20260501T00Z_MSC_GDPS_PrecipType-Instant_Sfc_LatLon0.15_PT012H.grib2 2026-05-01 03:56 1.6M
20260501T00Z_MSC_GDPS_Pressure_MSL_LatLon0.15_PT012H.grib2 2026-05-01 03:56 831K
20260501T00Z_MSC_GDPS_Pressure_PVU-1.5_LatLon0.15_PT012H.grib2 2026-05-01 03:56 5.8M
20260501T00Z_MSC_GDPS_Pressure_PVU-1_LatLon0.15_PT012H.grib2 2026-05-01 03:56 6.0M
20260501T00Z_MSC_GDPS_Pressure_PVU-2_LatLon0.15_PT012H.grib2 2026-05-01 03:56 5.6M
20260501T00Z_MSC_GDPS_Pressure_Sfc_LatLon0.15_PT012H.grib2 2026-05-01 03:56 1.1M
20260501T00Z_MSC_GDPS_RadiativeTemp_Sfc_LatLon0.15_PT012H.grib2 2026-05-01 03:56 497K
20260501T00Z_MSC_GDPS_Rain-Accum12h_Sfc_LatLon0.15_PT012H.grib2 2026-05-01 03:56 2.8M
20260501T00Z_MSC_GDPS_Rain-Accum1h_Sfc_LatLon0.15_PT012H.grib2 2026-05-01 03:56 1.7M
20260501T00Z_MSC_GDPS_Rain-Accum3h_Sfc_LatLon0.15_PT012H.grib2 2026-05-01 03:56 1.9M
20260501T00Z_MSC_GDPS_Rain-Accum6h_Sfc_LatLon0.15_PT012H.grib2 2026-05-01 03:56 2.4M
20260501T00Z_MSC_GDPS_Rain-Accum_Sfc_LatLon0.15_PT012H.grib2 2026-05-01 03:56 2.9M
20260501T00Z_MSC_GDPS_RelativeHumidity_AGL-2m_LatLon0.15_PT012H.grib2 2026-05-01 03:56 1.1M
20260501T00Z_MSC_GDPS_RelativeHumidity_IsbL-0010_LatLon0.15_PT012H.grib2 2026-05-01 03:56 189K
20260501T00Z_MSC_GDPS_RelativeHumidity_IsbL-0020_LatLon0.15_PT012H.grib2 2026-05-01 03:56 174K
20260501T00Z_MSC_GDPS_RelativeHumidity_IsbL-0030_LatLon0.15_PT012H.grib2 2026-05-01 03:56 272K
20260501T00Z_MSC_GDPS_RelativeHumidity_IsbL-0050_LatLon0.15_PT012H.grib2 2026-05-01 03:56 419K
20260501T00Z_MSC_GDPS_RelativeHumidity_IsbL-0100_LatLon0.15_PT012H.grib2 2026-05-01 03:56 512K
20260501T00Z_MSC_GDPS_RelativeHumidity_IsbL-0150_LatLon0.15_PT012H.grib2 2026-05-01 03:56 658K
20260501T00Z_MSC_GDPS_RelativeHumidity_IsbL-0175_LatLon0.15_PT012H.grib2 2026-05-01 03:56 772K
20260501T00Z_MSC_GDPS_RelativeHumidity_IsbL-0200_LatLon0.15_PT012H.grib2 2026-05-01 03:56 698K
20260501T00Z_MSC_GDPS_RelativeHumidity_IsbL-0225_LatLon0.15_PT012H.grib2 2026-05-01 03:56 793K
20260501T00Z_MSC_GDPS_RelativeHumidity_IsbL-0250_LatLon0.15_PT012H.grib2 2026-05-01 03:56 874K
20260501T00Z_MSC_GDPS_RelativeHumidity_IsbL-0275_LatLon0.15_PT012H.grib2 2026-05-01 03:56 894K
20260501T00Z_MSC_GDPS_RelativeHumidity_IsbL-0300_LatLon0.15_PT012H.grib2 2026-05-01 03:56 933K
20260501T00Z_MSC_GDPS_RelativeHumidity_IsbL-0350_LatLon0.15_PT012H.grib2 2026-05-01 03:56 948K
20260501T00Z_MSC_GDPS_RelativeHumidity_IsbL-0400_LatLon0.15_PT012H.grib2 2026-05-01 03:56 969K
20260501T00Z_MSC_GDPS_RelativeHumidity_IsbL-0450_LatLon0.15_PT012H.grib2 2026-05-01 03:56 1.0M
20260501T00Z_MSC_GDPS_RelativeHumidity_IsbL-0500_LatLon0.15_PT012H.grib2 2026-05-01 03:56 1.0M
20260501T00Z_MSC_GDPS_RelativeHumidity_IsbL-0550_LatLon0.15_PT012H.grib2 2026-05-01 03:56 1.1M
20260501T00Z_MSC_GDPS_RelativeHumidity_IsbL-0600_LatLon0.15_PT012H.grib2 2026-05-01 03:56 1.1M
20260501T00Z_MSC_GDPS_RelativeHumidity_IsbL-0650_LatLon0.15_PT012H.grib2 2026-05-01 03:56 1.1M
20260501T00Z_MSC_GDPS_RelativeHumidity_IsbL-0700_LatLon0.15_PT012H.grib2 2026-05-01 03:56 1.2M
20260501T00Z_MSC_GDPS_RelativeHumidity_IsbL-0750_LatLon0.15_PT012H.grib2 2026-05-01 03:56 1.2M
20260501T00Z_MSC_GDPS_RelativeHumidity_IsbL-0800_LatLon0.15_PT012H.grib2 2026-05-01 03:56 1.3M
20260501T00Z_MSC_GDPS_RelativeHumidity_IsbL-0850_LatLon0.15_PT012H.grib2 2026-05-01 03:56 1.3M
20260501T00Z_MSC_GDPS_RelativeHumidity_IsbL-0875_LatLon0.15_PT012H.grib2 2026-05-01 03:56 1.3M
20260501T00Z_MSC_GDPS_RelativeHumidity_IsbL-0900_LatLon0.15_PT012H.grib2 2026-05-01 03:56 1.3M
20260501T00Z_MSC_GDPS_RelativeHumidity_IsbL-0925_LatLon0.15_PT012H.grib2 2026-05-01 03:56 1.2M
20260501T00Z_MSC_GDPS_RelativeHumidity_IsbL-0950_LatLon0.15_PT012H.grib2 2026-05-01 03:56 1.2M
20260501T00Z_MSC_GDPS_RelativeHumidity_IsbL-0970_LatLon0.15_PT012H.grib2 2026-05-01 03:56 1.2M
20260501T00Z_MSC_GDPS_RelativeHumidity_IsbL-0985_LatLon0.15_PT012H.grib2 2026-05-01 03:56 1.2M
20260501T00Z_MSC_GDPS_RelativeHumidity_IsbL-1000_LatLon0.15_PT012H.grib2 2026-05-01 03:56 1.1M
20260501T00Z_MSC_GDPS_RelativeHumidity_IsbL-1015_LatLon0.15_PT012H.grib2 2026-05-01 03:56 1.0M
20260501T00Z_MSC_GDPS_RelativeVorticity_IsbL-0200_LatLon0.15_PT012H.grib2 2026-05-01 03:56 1.5M
20260501T00Z_MSC_GDPS_RelativeVorticity_IsbL-0250_LatLon0.15_PT012H.grib2 2026-05-01 03:56 1.3M
20260501T00Z_MSC_GDPS_RelativeVorticity_IsbL-0500_LatLon0.15_PT012H.grib2 2026-05-01 03:56 1.5M
20260501T00Z_MSC_GDPS_RelativeVorticity_IsbL-0700_LatLon0.15_PT012H.grib2 2026-05-01 03:56 1.6M
20260501T00Z_MSC_GDPS_RelativeVorticity_IsbL-0850_LatLon0.15_PT012H.grib2 2026-05-01 03:56 1.6M
20260501T00Z_MSC_GDPS_Runoff-Accum_Sfc_LatLon0.15_PT012H.grib2 2026-05-01 03:56 112K
20260501T00Z_MSC_GDPS_SensibleHeatNetFlux_Sfc_LatLon0.15_PT012H.grib2 2026-05-01 03:56 652K
20260501T00Z_MSC_GDPS_ShowalterIndex_IsbL-0500_LatLon0.15_PT012H.grib2 2026-05-01 03:56 6.2M
20260501T00Z_MSC_GDPS_Snow-Accum12h_Sfc_LatLon0.15_PT012H.grib2 2026-05-01 03:56 1.4M
20260501T00Z_MSC_GDPS_Snow-Accum1h_Sfc_LatLon0.15_PT012H.grib2 2026-05-01 03:56 1.0M
20260501T00Z_MSC_GDPS_Snow-Accum3h_Sfc_LatLon0.15_PT012H.grib2 2026-05-01 03:56 1.0M
20260501T00Z_MSC_GDPS_Snow-Accum6h_Sfc_LatLon0.15_PT012H.grib2 2026-05-01 03:56 1.4M
20260501T00Z_MSC_GDPS_Snow-Accum_Sfc_LatLon0.15_PT012H.grib2 2026-05-01 03:56 1.7M
20260501T00Z_MSC_GDPS_SnowDensity_Sfc_LatLon0.15_PT012H.grib2 2026-05-01 03:56 255K
20260501T00Z_MSC_GDPS_SnowDepth_Sfc_LatLon0.15_PT012H.grib2 2026-05-01 03:56 1.7M
20260501T00Z_MSC_GDPS_SoilTemp_DBS-0to10cm_LatLon0.15_PT012H.grib2 2026-05-01 03:56 500K
20260501T00Z_MSC_GDPS_SoilTemp_Sfc_LatLon0.15_PT012H.grib2 2026-05-01 03:56 590K
20260501T00Z_MSC_GDPS_SoilVolumetricIceContent_Sfc_LatLon0.15_PT012H.grib2 2026-05-01 03:56 205K
20260501T00Z_MSC_GDPS_SoilVolumetricWaterContent_DBS-0to10cm_LatLon0.15_PT012H.grib2 2026-05-01 03:56 585K
20260501T00Z_MSC_GDPS_SoilVolumetricWaterContent_DBS-0to1cm_LatLon0.15_PT012H.grib2 2026-05-01 03:56 645K
20260501T00Z_MSC_GDPS_SpecificHumidity_AGL-120m_LatLon0.15_PT012H.grib2 2026-05-01 03:56 1.1M
20260501T00Z_MSC_GDPS_SpecificHumidity_AGL-2m_LatLon0.15_PT012H.grib2 2026-05-01 03:56 1.2M
20260501T00Z_MSC_GDPS_SpecificHumidity_AGL-40m_LatLon0.15_PT012H.grib2 2026-05-01 03:56 1.1M
20260501T00Z_MSC_GDPS_SpecificHumidity_AGL-80m_LatLon0.15_PT012H.grib2 2026-05-01 03:56 1.1M
20260501T00Z_MSC_GDPS_SpecificHumidity_IsbL-0001_LatLon0.15_PT012H.grib2 2026-05-01 03:56 1.4M
20260501T00Z_MSC_GDPS_SpecificHumidity_IsbL-0005_LatLon0.15_PT012H.grib2 2026-05-01 03:56 1.3M
20260501T00Z_MSC_GDPS_SpecificHumidity_IsbL-0010_LatLon0.15_PT012H.grib2 2026-05-01 03:56 1.4M
20260501T00Z_MSC_GDPS_SpecificHumidity_IsbL-0020_LatLon0.15_PT012H.grib2 2026-05-01 03:56 1.4M
20260501T00Z_MSC_GDPS_SpecificHumidity_IsbL-0030_LatLon0.15_PT012H.grib2 2026-05-01 03:56 1.4M
20260501T00Z_MSC_GDPS_SpecificHumidity_IsbL-0050_LatLon0.15_PT012H.grib2 2026-05-01 03:56 1.4M
20260501T00Z_MSC_GDPS_SpecificHumidity_IsbL-0100_LatLon0.15_PT012H.grib2 2026-05-01 03:56 1.4M
20260501T00Z_MSC_GDPS_SpecificHumidity_IsbL-0150_LatLon0.15_PT012H.grib2 2026-05-01 03:56 1.3M
20260501T00Z_MSC_GDPS_SpecificHumidity_IsbL-0175_LatLon0.15_PT012H.grib2 2026-05-01 03:56 1.2M
20260501T00Z_MSC_GDPS_SpecificHumidity_IsbL-0200_LatLon0.15_PT012H.grib2 2026-05-01 03:56 1.3M
20260501T00Z_MSC_GDPS_SpecificHumidity_IsbL-0225_LatLon0.15_PT012H.grib2 2026-05-01 03:56 1.3M
20260501T00Z_MSC_GDPS_SpecificHumidity_IsbL-0250_LatLon0.15_PT012H.grib2 2026-05-01 03:56 1.4M
20260501T00Z_MSC_GDPS_SpecificHumidity_IsbL-0275_LatLon0.15_PT012H.grib2 2026-05-01 03:56 1.3M
20260501T00Z_MSC_GDPS_SpecificHumidity_IsbL-0300_LatLon0.15_PT012H.grib2 2026-05-01 03:56 1.2M
20260501T00Z_MSC_GDPS_SpecificHumidity_IsbL-0350_LatLon0.15_PT012H.grib2 2026-05-01 03:56 1.2M
20260501T00Z_MSC_GDPS_SpecificHumidity_IsbL-0400_LatLon0.15_PT012H.grib2 2026-05-01 03:56 1.4M
20260501T00Z_MSC_GDPS_SpecificHumidity_IsbL-0450_LatLon0.15_PT012H.grib2 2026-05-01 03:56 1.6M
20260501T00Z_MSC_GDPS_SpecificHumidity_IsbL-0500_LatLon0.15_PT012H.grib2 2026-05-01 03:56 1.4M
20260501T00Z_MSC_GDPS_SpecificHumidity_IsbL-0550_LatLon0.15_PT012H.grib2 2026-05-01 03:56 1.6M
20260501T00Z_MSC_GDPS_SpecificHumidity_IsbL-0600_LatLon0.15_PT012H.grib2 2026-05-01 03:56 1.7M
20260501T00Z_MSC_GDPS_SpecificHumidity_IsbL-0650_LatLon0.15_PT012H.grib2 2026-05-01 03:56 1.5M
20260501T00Z_MSC_GDPS_SpecificHumidity_IsbL-0700_LatLon0.15_PT012H.grib2 2026-05-01 03:56 1.6M
20260501T00Z_MSC_GDPS_SpecificHumidity_IsbL-0750_LatLon0.15_PT012H.grib2 2026-05-01 03:56 1.7M
20260501T00Z_MSC_GDPS_SpecificHumidity_IsbL-0800_LatLon0.15_PT012H.grib2 2026-05-01 03:56 1.9M
20260501T00Z_MSC_GDPS_SpecificHumidity_IsbL-0850_LatLon0.15_PT012H.grib2 2026-05-01 03:56 1.9M
20260501T00Z_MSC_GDPS_SpecificHumidity_IsbL-0875_LatLon0.15_PT012H.grib2 2026-05-01 03:56 1.9M
20260501T00Z_MSC_GDPS_SpecificHumidity_IsbL-0900_LatLon0.15_PT012H.grib2 2026-05-01 03:56 1.6M
20260501T00Z_MSC_GDPS_SpecificHumidity_IsbL-0925_LatLon0.15_PT012H.grib2 2026-05-01 03:56 1.6M
20260501T00Z_MSC_GDPS_SpecificHumidity_IsbL-0950_LatLon0.15_PT012H.grib2 2026-05-01 03:56 1.6M
20260501T00Z_MSC_GDPS_SpecificHumidity_IsbL-0970_LatLon0.15_PT012H.grib2 2026-05-01 03:56 1.5M
20260501T00Z_MSC_GDPS_SpecificHumidity_IsbL-0985_LatLon0.15_PT012H.grib2 2026-05-01 03:56 1.5M
20260501T00Z_MSC_GDPS_SpecificHumidity_IsbL-1000_LatLon0.15_PT012H.grib2 2026-05-01 03:56 1.5M
20260501T00Z_MSC_GDPS_SpecificHumidity_IsbL-1015_LatLon0.15_PT012H.grib2 2026-05-01 03:56 1.4M
20260501T00Z_MSC_GDPS_SpecificHumidity_Sfc_LatLon0.15_PT012H.grib2 2026-05-01 03:56 672K
20260501T00Z_MSC_GDPS_Thickness_IsbL-0850to0700_LatLon0.15_PT012H.grib2 2026-05-01 03:56 467K
20260501T00Z_MSC_GDPS_Thickness_IsbL-1000to0500_LatLon0.15_PT012H.grib2 2026-05-01 03:56 369K
20260501T00Z_MSC_GDPS_Thickness_IsbL-1000to0850_LatLon0.15_PT012H.grib2 2026-05-01 03:56 487K
20260501T00Z_MSC_GDPS_TotalCloudCover_Sfc_LatLon0.15_PT012H.grib2 2026-05-01 03:56 831K
20260501T00Z_MSC_GDPS_TotalTotalsIndex_Sfc_LatLon0.15_PT012H.grib2 2026-05-01 03:56 6.2M
20260501T00Z_MSC_GDPS_UVIndex-ClearSky_Sfc_LatLon0.15_PT012H.grib2 2026-05-01 04:49 1.0M
20260501T00Z_MSC_GDPS_UVIndex_Sfc_LatLon0.15_PT012H.grib2 2026-05-01 04:49 1.4M
20260501T00Z_MSC_GDPS_UpwardLongwaveRadiationFlux_NTAtm_LatLon0.15_PT012H.grib2 2026-05-01 03:56 843K
20260501T00Z_MSC_GDPS_VerticalVelocity_IsbL-0200_LatLon0.15_PT012H.grib2 2026-05-01 03:56 1.1M
20260501T00Z_MSC_GDPS_VerticalVelocity_IsbL-0250_LatLon0.15_PT012H.grib2 2026-05-01 03:56 1.0M
20260501T00Z_MSC_GDPS_VerticalVelocity_IsbL-0500_LatLon0.15_PT012H.grib2 2026-05-01 03:56 1.0M
20260501T00Z_MSC_GDPS_VerticalVelocity_IsbL-0600_LatLon0.15_PT012H.grib2 2026-05-01 03:56 1.1M
20260501T00Z_MSC_GDPS_VerticalVelocity_IsbL-0700_LatLon0.15_PT012H.grib2 2026-05-01 03:56 1.2M
20260501T00Z_MSC_GDPS_VerticalVelocity_IsbL-0850_LatLon0.15_PT012H.grib2 2026-05-01 03:56 1.4M
20260501T00Z_MSC_GDPS_WindChill_Sfc_LatLon0.15_PT012H.grib2 2026-05-01 03:56 5.3M
20260501T00Z_MSC_GDPS_WindDir_AGL-10m_LatLon0.15_PT012H.grib2 2026-05-01 03:56 1.3M
20260501T00Z_MSC_GDPS_WindDir_AGL-120m_LatLon0.15_PT012H.grib2 2026-05-01 03:56 1.3M
20260501T00Z_MSC_GDPS_WindDir_AGL-40m_LatLon0.15_PT012H.grib2 2026-05-01 03:56 1.4M
20260501T00Z_MSC_GDPS_WindDir_AGL-80m_LatLon0.15_PT012H.grib2 2026-05-01 03:56 1.4M
20260501T00Z_MSC_GDPS_WindDir_IsbL-0001_LatLon0.15_PT012H.grib2 2026-05-01 03:56 659K
20260501T00Z_MSC_GDPS_WindDir_IsbL-0005_LatLon0.15_PT012H.grib2 2026-05-01 03:56 804K
20260501T00Z_MSC_GDPS_WindDir_IsbL-0010_LatLon0.15_PT012H.grib2 2026-05-01 03:56 862K
20260501T00Z_MSC_GDPS_WindDir_IsbL-0020_LatLon0.15_PT012H.grib2 2026-05-01 03:56 951K
20260501T00Z_MSC_GDPS_WindDir_IsbL-0030_LatLon0.15_PT012H.grib2 2026-05-01 03:56 927K
20260501T00Z_MSC_GDPS_WindDir_IsbL-0050_LatLon0.15_PT012H.grib2 2026-05-01 03:56 949K
20260501T00Z_MSC_GDPS_WindDir_IsbL-0100_LatLon0.15_PT012H.grib2 2026-05-01 03:56 1.0M
20260501T00Z_MSC_GDPS_WindDir_IsbL-0150_LatLon0.15_PT012H.grib2 2026-05-01 03:56 1.0M
20260501T00Z_MSC_GDPS_WindDir_IsbL-0175_LatLon0.15_PT012H.grib2 2026-05-01 03:56 1.0M
20260501T00Z_MSC_GDPS_WindDir_IsbL-0200_LatLon0.15_PT012H.grib2 2026-05-01 03:56 1.1M
20260501T00Z_MSC_GDPS_WindDir_IsbL-0225_LatLon0.15_PT012H.grib2 2026-05-01 03:56 1.1M
20260501T00Z_MSC_GDPS_WindDir_IsbL-0250_LatLon0.15_PT012H.grib2 2026-05-01 03:56 1.1M
20260501T00Z_MSC_GDPS_WindDir_IsbL-0275_LatLon0.15_PT012H.grib2 2026-05-01 03:56 1.2M
20260501T00Z_MSC_GDPS_WindDir_IsbL-0300_LatLon0.15_PT012H.grib2 2026-05-01 03:56 1.2M
20260501T00Z_MSC_GDPS_WindDir_IsbL-0350_LatLon0.15_PT012H.grib2 2026-05-01 03:56 1.2M
20260501T00Z_MSC_GDPS_WindDir_IsbL-0400_LatLon0.15_PT012H.grib2 2026-05-01 03:56 1.3M
20260501T00Z_MSC_GDPS_WindDir_IsbL-0450_LatLon0.15_PT012H.grib2 2026-05-01 03:56 1.3M
20260501T00Z_MSC_GDPS_WindDir_IsbL-0500_LatLon0.15_PT012H.grib2 2026-05-01 03:56 1.3M
20260501T00Z_MSC_GDPS_WindDir_IsbL-0550_LatLon0.15_PT012H.grib2 2026-05-01 03:56 1.4M
20260501T00Z_MSC_GDPS_WindDir_IsbL-0600_LatLon0.15_PT012H.grib2 2026-05-01 03:56 1.4M
20260501T00Z_MSC_GDPS_WindDir_IsbL-0650_LatLon0.15_PT012H.grib2 2026-05-01 03:56 1.5M
20260501T00Z_MSC_GDPS_WindDir_IsbL-0700_LatLon0.15_PT012H.grib2 2026-05-01 03:56 1.6M
20260501T00Z_MSC_GDPS_WindDir_IsbL-0750_LatLon0.15_PT012H.grib2 2026-05-01 03:56 1.7M
20260501T00Z_MSC_GDPS_WindDir_IsbL-0800_LatLon0.15_PT012H.grib2 2026-05-01 03:56 1.8M
20260501T00Z_MSC_GDPS_WindDir_IsbL-0850_LatLon0.15_PT012H.grib2 2026-05-01 03:56 1.9M
20260501T00Z_MSC_GDPS_WindDir_IsbL-0875_LatLon0.15_PT012H.grib2 2026-05-01 03:56 2.0M
20260501T00Z_MSC_GDPS_WindDir_IsbL-0900_LatLon0.15_PT012H.grib2 2026-05-01 03:56 2.0M
20260501T00Z_MSC_GDPS_WindDir_IsbL-0925_LatLon0.15_PT012H.grib2 2026-05-01 03:56 2.0M
20260501T00Z_MSC_GDPS_WindDir_IsbL-0950_LatLon0.15_PT012H.grib2 2026-05-01 03:56 2.0M
20260501T00Z_MSC_GDPS_WindDir_IsbL-0970_LatLon0.15_PT012H.grib2 2026-05-01 03:56 2.0M
20260501T00Z_MSC_GDPS_WindDir_IsbL-0985_LatLon0.15_PT012H.grib2 2026-05-01 03:56 2.0M
20260501T00Z_MSC_GDPS_WindDir_IsbL-1000_LatLon0.15_PT012H.grib2 2026-05-01 03:56 2.0M
20260501T00Z_MSC_GDPS_WindDir_IsbL-1015_LatLon0.15_PT012H.grib2 2026-05-01 03:56 2.0M
20260501T00Z_MSC_GDPS_WindGust-Max_AGL-10m_LatLon0.15_PT012H.grib2 2026-05-01 03:56 2.2M
20260501T00Z_MSC_GDPS_WindGust-Min_AGL-10m_LatLon0.15_PT012H.grib2 2026-05-01 03:56 2.1M
20260501T00Z_MSC_GDPS_WindGust_AGL-10m_LatLon0.15_PT012H.grib2 2026-05-01 03:56 2.1M
20260501T00Z_MSC_GDPS_WindSpeed_AGL-10m_LatLon0.15_PT012H.grib2 2026-05-01 03:56 1.1M
20260501T00Z_MSC_GDPS_WindSpeed_AGL-120m_LatLon0.15_PT012H.grib2 2026-05-01 03:56 1.2M
20260501T00Z_MSC_GDPS_WindSpeed_AGL-40m_LatLon0.15_PT012H.grib2 2026-05-01 03:56 1.2M
20260501T00Z_MSC_GDPS_WindSpeed_AGL-80m_LatLon0.15_PT012H.grib2 2026-05-01 03:56 1.2M
20260501T00Z_MSC_GDPS_WindSpeed_IsbL-0001_LatLon0.15_PT012H.grib2 2026-05-01 03:56 645K
20260501T00Z_MSC_GDPS_WindSpeed_IsbL-0005_LatLon0.15_PT012H.grib2 2026-05-01 03:56 698K
20260501T00Z_MSC_GDPS_WindSpeed_IsbL-0010_LatLon0.15_PT012H.grib2 2026-05-01 03:56 634K
20260501T00Z_MSC_GDPS_WindSpeed_IsbL-0020_LatLon0.15_PT012H.grib2 2026-05-01 03:56 867K
20260501T00Z_MSC_GDPS_WindSpeed_IsbL-0030_LatLon0.15_PT012H.grib2 2026-05-01 03:56 872K
20260501T00Z_MSC_GDPS_WindSpeed_IsbL-0050_LatLon0.15_PT012H.grib2 2026-05-01 03:56 912K
20260501T00Z_MSC_GDPS_WindSpeed_IsbL-0100_LatLon0.15_PT012H.grib2 2026-05-01 03:56 1.1M
20260501T00Z_MSC_GDPS_WindSpeed_IsbL-0150_LatLon0.15_PT012H.grib2 2026-05-01 03:56 1.0M
20260501T00Z_MSC_GDPS_WindSpeed_IsbL-0175_LatLon0.15_PT012H.grib2 2026-05-01 03:56 1.0M
20260501T00Z_MSC_GDPS_WindSpeed_IsbL-0200_LatLon0.15_PT012H.grib2 2026-05-01 03:56 1.1M
20260501T00Z_MSC_GDPS_WindSpeed_IsbL-0225_LatLon0.15_PT012H.grib2 2026-05-01 03:56 1.1M
20260501T00Z_MSC_GDPS_WindSpeed_IsbL-0250_LatLon0.15_PT012H.grib2 2026-05-01 03:56 1.1M
20260501T00Z_MSC_GDPS_WindSpeed_IsbL-0275_LatLon0.15_PT012H.grib2 2026-05-01 03:56 1.1M
20260501T00Z_MSC_GDPS_WindSpeed_IsbL-0300_LatLon0.15_PT012H.grib2 2026-05-01 03:56 1.1M
20260501T00Z_MSC_GDPS_WindSpeed_IsbL-0350_LatLon0.15_PT012H.grib2 2026-05-01 03:56 1.1M
20260501T00Z_MSC_GDPS_WindSpeed_IsbL-0400_LatLon0.15_PT012H.grib2 2026-05-01 03:56 1.1M
20260501T00Z_MSC_GDPS_WindSpeed_IsbL-0450_LatLon0.15_PT012H.grib2 2026-05-01 03:56 1.1M
20260501T00Z_MSC_GDPS_WindSpeed_IsbL-0500_LatLon0.15_PT012H.grib2 2026-05-01 03:56 1.1M
20260501T00Z_MSC_GDPS_WindSpeed_IsbL-0550_LatLon0.15_PT012H.grib2 2026-05-01 03:56 1.1M
20260501T00Z_MSC_GDPS_WindSpeed_IsbL-0600_LatLon0.15_PT012H.grib2 2026-05-01 03:56 1.1M
20260501T00Z_MSC_GDPS_WindSpeed_IsbL-0650_LatLon0.15_PT012H.grib2 2026-05-01 03:56 1.5M
20260501T00Z_MSC_GDPS_WindSpeed_IsbL-0700_LatLon0.15_PT012H.grib2 2026-05-01 03:56 1.5M
20260501T00Z_MSC_GDPS_WindSpeed_IsbL-0750_LatLon0.15_PT012H.grib2 2026-05-01 03:56 1.6M
20260501T00Z_MSC_GDPS_WindSpeed_IsbL-0800_LatLon0.15_PT012H.grib2 2026-05-01 03:56 1.7M
20260501T00Z_MSC_GDPS_WindSpeed_IsbL-0850_LatLon0.15_PT012H.grib2 2026-05-01 03:56 1.7M
20260501T00Z_MSC_GDPS_WindSpeed_IsbL-0875_LatLon0.15_PT012H.grib2 2026-05-01 03:56 1.8M
20260501T00Z_MSC_GDPS_WindSpeed_IsbL-0900_LatLon0.15_PT012H.grib2 2026-05-01 03:56 1.8M
20260501T00Z_MSC_GDPS_WindSpeed_IsbL-0925_LatLon0.15_PT012H.grib2 2026-05-01 03:56 1.8M
20260501T00Z_MSC_GDPS_WindSpeed_IsbL-0950_LatLon0.15_PT012H.grib2 2026-05-01 03:56 1.9M
20260501T00Z_MSC_GDPS_WindSpeed_IsbL-0970_LatLon0.15_PT012H.grib2 2026-05-01 03:56 1.9M
20260501T00Z_MSC_GDPS_WindSpeed_IsbL-0985_LatLon0.15_PT012H.grib2 2026-05-01 03:56 1.9M
20260501T00Z_MSC_GDPS_WindSpeed_IsbL-1000_LatLon0.15_PT012H.grib2 2026-05-01 03:56 1.9M
20260501T00Z_MSC_GDPS_WindSpeed_IsbL-1015_LatLon0.15_PT012H.grib2 2026-05-01 03:56 1.8M
20260501T00Z_MSC_GDPS_WindU_AGL-10m_LatLon0.15_PT012H.grib2 2026-05-01 03:56 1.3M
20260501T00Z_MSC_GDPS_WindU_AGL-120m_LatLon0.15_PT012H.grib2 2026-05-01 03:56 1.0M
20260501T00Z_MSC_GDPS_WindU_AGL-40m_LatLon0.15_PT012H.grib2 2026-05-01 03:56 1.0M
20260501T00Z_MSC_GDPS_WindU_AGL-80m_LatLon0.15_PT012H.grib2 2026-05-01 03:56 1.0M
20260501T00Z_MSC_GDPS_WindU_IsbL-0001_LatLon0.15_PT012H.grib2 2026-05-01 03:56 505K
20260501T00Z_MSC_GDPS_WindU_IsbL-0005_LatLon0.15_PT012H.grib2 2026-05-01 03:56 697K
20260501T00Z_MSC_GDPS_WindU_IsbL-0010_LatLon0.15_PT012H.grib2 2026-05-01 03:56 708K
20260501T00Z_MSC_GDPS_WindU_IsbL-0020_LatLon0.15_PT012H.grib2 2026-05-01 03:56 740K
20260501T00Z_MSC_GDPS_WindU_IsbL-0030_LatLon0.15_PT012H.grib2 2026-05-01 03:56 746K
20260501T00Z_MSC_GDPS_WindU_IsbL-0050_LatLon0.15_PT012H.grib2 2026-05-01 03:56 775K
20260501T00Z_MSC_GDPS_WindU_IsbL-0100_LatLon0.15_PT012H.grib2 2026-05-01 03:56 922K
20260501T00Z_MSC_GDPS_WindU_IsbL-0150_LatLon0.15_PT012H.grib2 2026-05-01 03:56 1.0M
20260501T00Z_MSC_GDPS_WindU_IsbL-0175_LatLon0.15_PT012H.grib2 2026-05-01 03:56 1.0M
20260501T00Z_MSC_GDPS_WindU_IsbL-0200_LatLon0.15_PT012H.grib2 2026-05-01 03:56 842K
20260501T00Z_MSC_GDPS_WindU_IsbL-0225_LatLon0.15_PT012H.grib2 2026-05-01 03:56 853K
20260501T00Z_MSC_GDPS_WindU_IsbL-0250_LatLon0.15_PT012H.grib2 2026-05-01 03:56 856K
20260501T00Z_MSC_GDPS_WindU_IsbL-0275_LatLon0.15_PT012H.grib2 2026-05-01 03:56 884K
20260501T00Z_MSC_GDPS_WindU_IsbL-0300_LatLon0.15_PT012H.grib2 2026-05-01 03:56 873K
20260501T00Z_MSC_GDPS_WindU_IsbL-0350_LatLon0.15_PT012H.grib2 2026-05-01 03:56 884K
20260501T00Z_MSC_GDPS_WindU_IsbL-0400_LatLon0.15_PT012H.grib2 2026-05-01 03:56 1.1M
20260501T00Z_MSC_GDPS_WindU_IsbL-0450_LatLon0.15_PT012H.grib2 2026-05-01 03:56 1.1M
20260501T00Z_MSC_GDPS_WindU_IsbL-0500_LatLon0.15_PT012H.grib2 2026-05-01 03:56 1.1M
20260501T00Z_MSC_GDPS_WindU_IsbL-0550_LatLon0.15_PT012H.grib2 2026-05-01 03:56 1.1M
20260501T00Z_MSC_GDPS_WindU_IsbL-0600_LatLon0.15_PT012H.grib2 2026-05-01 03:56 1.2M
20260501T00Z_MSC_GDPS_WindU_IsbL-0650_LatLon0.15_PT012H.grib2 2026-05-01 03:56 1.2M
20260501T00Z_MSC_GDPS_WindU_IsbL-0700_LatLon0.15_PT012H.grib2 2026-05-01 03:56 1.2M
20260501T00Z_MSC_GDPS_WindU_IsbL-0750_LatLon0.15_PT012H.grib2 2026-05-01 03:56 1.3M
20260501T00Z_MSC_GDPS_WindU_IsbL-0800_LatLon0.15_PT012H.grib2 2026-05-01 03:56 1.4M
20260501T00Z_MSC_GDPS_WindU_IsbL-0850_LatLon0.15_PT012H.grib2 2026-05-01 03:56 1.4M
20260501T00Z_MSC_GDPS_WindU_IsbL-0875_LatLon0.15_PT012H.grib2 2026-05-01 03:56 1.5M
20260501T00Z_MSC_GDPS_WindU_IsbL-0900_LatLon0.15_PT012H.grib2 2026-05-01 03:56 1.5M
20260501T00Z_MSC_GDPS_WindU_IsbL-0925_LatLon0.15_PT012H.grib2 2026-05-01 03:56 1.5M
20260501T00Z_MSC_GDPS_WindU_IsbL-0950_LatLon0.15_PT012H.grib2 2026-05-01 03:56 1.4M
20260501T00Z_MSC_GDPS_WindU_IsbL-0970_LatLon0.15_PT012H.grib2 2026-05-01 03:56 1.4M
20260501T00Z_MSC_GDPS_WindU_IsbL-0985_LatLon0.15_PT012H.grib2 2026-05-01 03:56 1.4M
20260501T00Z_MSC_GDPS_WindU_IsbL-1000_LatLon0.15_PT012H.grib2 2026-05-01 03:56 1.4M
20260501T00Z_MSC_GDPS_WindU_IsbL-1015_LatLon0.15_PT012H.grib2 2026-05-01 03:56 1.4M
20260501T00Z_MSC_GDPS_WindV_AGL-10m_LatLon0.15_PT012H.grib2 2026-05-01 03:56 1.3M
20260501T00Z_MSC_GDPS_WindV_AGL-120m_LatLon0.15_PT012H.grib2 2026-05-01 03:56 1.0M
20260501T00Z_MSC_GDPS_WindV_AGL-40m_LatLon0.15_PT012H.grib2 2026-05-01 03:56 967K
20260501T00Z_MSC_GDPS_WindV_AGL-80m_LatLon0.15_PT012H.grib2 2026-05-01 03:56 973K
20260501T00Z_MSC_GDPS_WindV_IsbL-0001_LatLon0.15_PT012H.grib2 2026-05-01 03:56 714K
20260501T00Z_MSC_GDPS_WindV_IsbL-0005_LatLon0.15_PT012H.grib2 2026-05-01 03:56 769K
20260501T00Z_MSC_GDPS_WindV_IsbL-0010_LatLon0.15_PT012H.grib2 2026-05-01 03:56 803K
20260501T00Z_MSC_GDPS_WindV_IsbL-0020_LatLon0.15_PT012H.grib2 2026-05-01 03:56 856K
20260501T00Z_MSC_GDPS_WindV_IsbL-0030_LatLon0.15_PT012H.grib2 2026-05-01 03:56 858K
20260501T00Z_MSC_GDPS_WindV_IsbL-0050_LatLon0.15_PT012H.grib2 2026-05-01 03:56 908K
20260501T00Z_MSC_GDPS_WindV_IsbL-0100_LatLon0.15_PT012H.grib2 2026-05-01 03:56 1.1M
20260501T00Z_MSC_GDPS_WindV_IsbL-0150_LatLon0.15_PT012H.grib2 2026-05-01 03:56 1.0M
20260501T00Z_MSC_GDPS_WindV_IsbL-0175_LatLon0.15_PT012H.grib2 2026-05-01 03:56 1.0M
20260501T00Z_MSC_GDPS_WindV_IsbL-0200_LatLon0.15_PT012H.grib2 2026-05-01 03:56 843K
20260501T00Z_MSC_GDPS_WindV_IsbL-0225_LatLon0.15_PT012H.grib2 2026-05-01 03:56 851K
20260501T00Z_MSC_GDPS_WindV_IsbL-0250_LatLon0.15_PT012H.grib2 2026-05-01 03:56 853K
20260501T00Z_MSC_GDPS_WindV_IsbL-0275_LatLon0.15_PT012H.grib2 2026-05-01 03:56 879K
20260501T00Z_MSC_GDPS_WindV_IsbL-0300_LatLon0.15_PT012H.grib2 2026-05-01 03:56 867K
20260501T00Z_MSC_GDPS_WindV_IsbL-0350_LatLon0.15_PT012H.grib2 2026-05-01 03:56 877K
20260501T00Z_MSC_GDPS_WindV_IsbL-0400_LatLon0.15_PT012H.grib2 2026-05-01 03:56 883K
20260501T00Z_MSC_GDPS_WindV_IsbL-0450_LatLon0.15_PT012H.grib2 2026-05-01 03:56 1.1M
20260501T00Z_MSC_GDPS_WindV_IsbL-0500_LatLon0.15_PT012H.grib2 2026-05-01 03:56 1.1M
20260501T00Z_MSC_GDPS_WindV_IsbL-0550_LatLon0.15_PT012H.grib2 2026-05-01 03:56 1.1M
20260501T00Z_MSC_GDPS_WindV_IsbL-0600_LatLon0.15_PT012H.grib2 2026-05-01 03:56 1.1M
20260501T00Z_MSC_GDPS_WindV_IsbL-0650_LatLon0.15_PT012H.grib2 2026-05-01 03:56 1.2M
20260501T00Z_MSC_GDPS_WindV_IsbL-0700_LatLon0.15_PT012H.grib2 2026-05-01 03:56 1.2M
20260501T00Z_MSC_GDPS_WindV_IsbL-0750_LatLon0.15_PT012H.grib2 2026-05-01 03:56 1.3M
20260501T00Z_MSC_GDPS_WindV_IsbL-0800_LatLon0.15_PT012H.grib2 2026-05-01 03:56 1.4M
20260501T00Z_MSC_GDPS_WindV_IsbL-0850_LatLon0.15_PT012H.grib2 2026-05-01 03:56 1.4M
20260501T00Z_MSC_GDPS_WindV_IsbL-0875_LatLon0.15_PT012H.grib2 2026-05-01 03:56 1.4M
20260501T00Z_MSC_GDPS_WindV_IsbL-0900_LatLon0.15_PT012H.grib2 2026-05-01 03:56 1.5M
20260501T00Z_MSC_GDPS_WindV_IsbL-0925_LatLon0.15_PT012H.grib2 2026-05-01 03:56 1.4M
20260501T00Z_MSC_GDPS_WindV_IsbL-0950_LatLon0.15_PT012H.grib2 2026-05-01 03:56 1.4M
20260501T00Z_MSC_GDPS_WindV_IsbL-0970_LatLon0.15_PT012H.grib2 2026-05-01 03:56 1.4M
20260501T00Z_MSC_GDPS_WindV_IsbL-0985_LatLon0.15_PT012H.grib2 2026-05-01 03:56 1.4M
20260501T00Z_MSC_GDPS_WindV_IsbL-1000_LatLon0.15_PT012H.grib2 2026-05-01 03:56 1.4M
20260501T00Z_MSC_GDPS_WindV_IsbL-1015_LatLon0.15_PT012H.grib2 2026-05-01 03:56 1.3M